Regional Weather Roundup
Issued by NWS

Home | Current Version | Previous Version | Graphics & Text | Print | Product List | Glossary On
Versions: 1 2 3 4 5 6 7 8 9 10 11 12 13 14 15 16 17 18 19 20 21 22 23 24 25 26 27 28 29 30 31 32 33 34 35 36 37 38 39 40 41 42 43 44 45 46 47 48 49 50
000
ASUS45 KBOU 210107
RWRCO

WEATHER ROUNDUP FOR COLORADO
NATIONAL WEATHER SERVICE DENVER/BOULDER CO
700 PM MDT FRI OCT 20 2017

NOTE: "FAIR" INDICATES FEW OR NO CLOUDS BELOW 12000 FEET WITH NO
SIGNIFICANT WEATHER AND/OR OBSTRUCTIONS TO VISIBILITY.

COZ001>005-013-030-031-210200-
...NORTHWEST COLORADO...

CITY           SKY/WX    TMP DP  RH WIND       PRES   REMARKS
CRAIG          CLOUDY    50  33  52 NW16G36   29.69R
HAYDEN         TSTM      50  32  50 NW31G39   29.68R
MEEKER         CLOUDY    63  23  21 SW13      29.64R
RABBIT EARS PA FAIR      41  23  48 SW12G31   29.82F
STEAMBOAT SPGS FAIR      56  25  30 S5        29.65R
WALDEN         NOT AVBL
$$

COZ006>008-011-210200-
...WEST CENTRAL VALLEYS...

CITY           SKY/WX    TMP DP  RH WIND       PRES   REMARKS
GRAND JUNCTION FAIR      69  24  18 SW9       29.56S
MONTROSE       FAIR      67  23  19 S12       29.67F
EAGLE          FAIR      60  25  26 W7        29.68F
RIFLE          FAIR      68  24  19 S20G28    29.60F
DELTA          FAIR      70  23  17 S8        29.62F
NUCLA          NOT AVBL
$$

COZ017>023-064>068-210200-
...SOUTHWEST COLORADO...

CITY           SKY/WX    TMP DP  RH WIND       PRES   REMARKS
DURANGO        CLOUDY    62  24  23 S6        29.78F
CORTEZ         FAIR      63  23  21 SW12      29.72F
PAGOSA SPRINGS FAIR      51  26  37 CALM      29.86F
TELLURIDE      NOT AVBL
WOLF CREEK PAS NOT AVBL
$$

COZ009-010-012-014-032>034-037-058>063-210200-
...CENTRAL COLORADO...

CITY           SKY/WX    TMP DP  RH WIND       PRES   REMARKS
ASPEN          FAIR      52  23  32 S7        29.74F
BUENA VISTA    FAIR      56  15  19 W15G21    29.76R
COPPER MTN     FAIR      41  18  38 W14G21    29.97S
BERTHOUD PASS  FAIR      32  23  69 W12G20    29.97S WCI  23
COTTONWOOD PAS FAIR      54  14  20 W16G31    29.86S
GUNNISON       FAIR      56  22  26 SW7       29.78R
KREMMLING      FAIR      61  18  18 SW13      29.71S
LEADVILLE      NOT AVBL
MONARCH PASS   CLOUDY    37  16  41 W33G41    30.07F
SALIDA         FAIR      61  22  22 SW16      29.82R
SUNLIGHT       FAIR      37  23  56 S15G39    29.89F
WILKERSON PASS FAIR      41  14  33 SW9G16    29.95S
$$

COZ069>075-210200-
...SAN LUIS VALLEY/SANGRE DE CRISTO MOUNTAINS...

CITY           SKY/WX    TMP DP  RH WIND       PRES   REMARKS
ALAMOSA        FAIR      52  24  33 SW8       29.83S
DEL NORTE      FAIR      54  25  32 SW10      29.84S
LA VETA PASS   FAIR      45  23  42 S28G41    30.02R
SAGUACHE       FAIR      54  23  30 W7        29.82R
$$

COZ035-036-038>040-210200-
...NORTHERN COLORADO FRONT RANGE...

CITY           SKY/WX    TMP DP  RH WIND       PRES   REMARKS
DENVER INTL AP FAIR      61  30  31 N8        29.51R
DMNS CITY PARK   N/A     64  30  27 SE7       29.52S
AURORA         PTCLDY    66  28  23 CALM      29.54S
FRONT RANGE AP PTCLDY    64  30  27 S8        29.53R
ERIE MUNI ARPT FAIR      56  35  44 SW5       29.56F
BOULDER MUN AP FAIR      63  34  34 SW5       29.53R
CENTENNIAL     FAIR      68  21  16 CALM      29.56R
BROOMFIELD     PTCLDY    66  32  28 NW7       29.55S
FORT COLLINS   FAIR      65  33  30 SE6       29.51S
LONGMONT       FAIR      60  37  42 W8        29.53S HAZE
$$

COZ041-046-047-076>085-087-088-210200-
...PIKES PEAK/PALMER DIVIDE AND SOUTHERN FOOTHILLS...

CITY           SKY/WX    TMP DP  RH WIND       PRES   REMARKS
COLO. SPRINGS  FAIR      63  27  25 S9        29.64R
A. F. ACADEMY  FAIR      60  24  25 SE7       29.64R
SCHRIEVER AFB  FAIR      58  25  28 SW9       29.64S
CHEYENNE MTN   FAIR      62  22  21 SE10      29.63S
ELLICOTT         N/A    N/A N/A N/A S8        29.63S
FALCON         FAIR      58  24  27 S18G25    29.68S
FORT CARSON    FAIR      65  25  22 SW13      29.61S
LIMON          FAIR      60  30  32 S9        29.56F
MONUMENT HILL  FAIR      50  28  43 S12       29.67S
CANON CITY     FAIR      72  27  18 SW15G38   29.60R
WALSENBURG     FAIR      66  25  20 SW16G24   29.70R
TRINIDAD       FAIR      61  26  26 SW12      29.69S
$$

COZ042>045-048>051-090-091-210200-
...NORTHEAST COLORADO...

CITY           SKY/WX    TMP DP  RH WIND       PRES   REMARKS
GREELEY ARPT   FAIR      58  37  45 NE6       29.49S HAZE
AKRON          FAIR      59  35  40 E9        29.52S
BURLINGTON     FAIR      61  39  44 S12       29.55F
WRAY           NOT AVBL
YUMA           FAIR      59  27  29 CALM      29.50S
STERLING       FAIR      63  37  39 E6        29.48S
HOLYOKE        FAIR      61  41  48 E3        29.50S
FORT MORGAN    FAIR      58  32  37 E10       29.48F
$$

COZ086-089-092>099-210200-
...SOUTHEAST COLORADO...

CITY           SKY/WX    TMP DP  RH WIND       PRES   REMARKS
PUEBLO         FAIR      68  26  20 W10       29.56R
LA JUNTA       FAIR      68  33  27 SW13G25   29.57R
LAMAR          FAIR      64  35  34 S9        29.52S
SPRINGFIELD      N/A     68  41  37 S15G23    29.64R
$$



USA.gov is the U.S. government's official web portal to all federal, state and local government web resources and services.